User: anonymous   Login
Location: Drocourt
(49.0571°N, 1.7669°E)
Time: 00:32:06
(UTC+00:00)
Language:

Cosmos 1980 - Orbit

View from above orbital plane
View from above orbital plane
View from above satellite
View from above satellite

Ground track
Ground track

The orbit data is extracted from the following two-line orbital elements,

1 19649U 88102A   24106.54004926  .00000047  00000-0  48783-4 0  9996
2 19649  71.0000 229.9252 0003888 142.8200 217.3193 14.14928339827089
Epoch (UTC): 15 April 2024 12:57:40
Eccentricity: 0.0003888
inclination: 71.0000°
perigee height: 840 km
apogee height: 845 km
right ascension of ascending node: 229.9252°
argument of perigee: 142.8200°
revolutions per day: 14.14928339
mean anomaly at epoch: 217.3193°
orbit number at epoch: 82708

The dashed part of the orbit path shows where the satellite is in the earth's shadow,  

DLR